Ann Arbor, MI

11:55 PM EDT on July 23, 2017 (GMT -0400)
Ann Arbor Municipal

Weather History for KARB - April, 2013

Change the Weather History Date:

Thursday, April 25, 2013

  Actual Average Record
Temperature  
Mean Temperature 40 °F -  
Max Temperature 52 °F 61 °F 79 °F (2008)
Min Temperature 28 °F 36 °F 25 °F (2006)
Degree Days  
Heating Degree Days 25    
Moisture  
Dew Point 31 °F    
Average Humidity 75    
Maximum Humidity 89    
Minimum Humidity 39    
Precipitation  
Precipitation 0.12 in - - ()
Sea Level Pressure  
Sea Level Pressure 30.19 in    
Wind  
Wind Speed 8 mph (WSW)    
Max Wind Speed 17 mph    
Max Gust Speed 28 mph    
Visibility 9 miles    
Events Rain    
Averages and records for this station are not official NWS values.
T = Trace of Precipitation, MM = Missing Value Source: NWS Daily Summary

Daily Weather History Graph

Daily Weather History Graph

Search for Another Location

Airport or City:

Trip Planner

Search our weather history database for the weather conditions in past years. The results will help you decide how hot, cold, wet, or windy it might be!

Date:

Astronomy

Apr. 25, 2013 Rise Set
Actual Time 6:38 AM EDT 8:27 PM EDT
Civil Twilight 6:08 AM EDT 8:58 PM EDT
Nautical Twilight 5:32 AM EDT 9:34 PM EDT
Astronomical Twilight 4:52 AM EDT 10:14 PM EDT
Moon 8:40 PM EDT (4/25) 6:21 AM EDT (4/25)
Length of Visible Light 14h 49m
Length of Day
13h 49m
Full, 100% of the Moon is Illuminated
Apr 25
Full
Apr 25
Full
May 2
Last Quarter
May 9
New
May 18
First Quarter

Hourly Weather History & Observations

Time (EDT) Temp. Windchill Dew Point Humidity Pressure Visibility Wind Dir Wind Speed Gust Speed Precip Events Conditions
12:53 AM 32.0 °F 27.5 °F 25.0 °F 75% 30.15 in 10.0 mi SSW 4.6 mph - N/A   Clear
1:53 AM 30.0 °F 25.2 °F 27.0 °F 88% 30.15 in 10.0 mi SSW 4.6 mph - N/A   Clear
2:53 AM 30.0 °F 25.2 °F 25.0 °F 82% 30.14 in 10.0 mi SW 4.6 mph - N/A   Clear
3:53 AM 30.0 °F 26.5 °F 26.1 °F 85% 30.14 in 10.0 mi SW 3.5 mph - N/A   Clear
4:53 AM 30.0 °F 26.5 °F 26.1 °F 85% 30.14 in 10.0 mi SSW 3.5 mph - N/A   Clear
5:53 AM 28.9 °F 22.8 °F 26.1 °F 89% 30.16 in 10.0 mi SW 5.8 mph - N/A   Clear
6:53 AM 30.0 °F 25.2 °F 27.0 °F 88% 30.15 in 10.0 mi SSW 4.6 mph - N/A   Clear
7:53 AM 35.1 °F 28.6 °F 30.9 °F 85% 30.14 in 9.0 mi SSW 8.1 mph - N/A   Clear
8:53 AM 39.9 °F 34.5 °F 34.0 °F 79% 30.14 in 10.0 mi SSW 8.1 mph - N/A   Clear
9:53 AM 43.0 °F 36.8 °F 34.0 °F 71% 30.13 in 10.0 mi SSW 11.5 mph - N/A   Partly Cloudy
10:53 AM 41.0 °F 32.5 °F 35.1 °F 79% 30.15 in 6.0 mi WSW 17.3 mph 24.2 mph 0.01 in Rain Rain
11:39 AM 41.0 °F 33.5 °F 37.4 °F 87% 30.14 in 6.0 mi SW 13.8 mph 18.4 mph 0.02 in Rain Light Rain
11:51 AM 41.0 °F 33.5 °F 37.4 °F 87% 30.14 in 10.0 mi SW 13.8 mph 20.7 mph 0.02 in   Overcast
11:53 AM 41.0 °F 34.3 °F 37.0 °F 86% 30.16 in 10.0 mi SW 11.5 mph 20.7 mph 0.02 in Rain Light Rain
12:53 PM 45.0 °F 38.2 °F 39.0 °F 80% 30.16 in 10.0 mi WSW 15.0 mph 20.7 mph 0.00 in   Overcast
1:32 PM 37.4 °F 29.8 °F 33.8 °F 87% 30.15 in 2.0 mi WNW 11.5 mph - 0.07 in Rain Rain
1:42 PM 42.8 °F 37.5 °F 37.4 °F 81% 30.14 in 9.0 mi WNW 9.2 mph - 0.07 in Rain Light Rain
1:53 PM 45.0 °F 38.9 °F 39.0 °F 80% 30.17 in 10.0 mi West 12.7 mph - 0.07 in   Mostly Cloudy
2:24 PM 39.2 °F 30.2 °F 35.6 °F 87% 30.17 in 5.0 mi WNW 17.3 mph 27.6 mph 0.01 in Rain Rain
2:53 PM 44.1 °F 38.6 °F 37.9 °F 79% 30.19 in 10.0 mi West 10.4 mph - 0.02 in   Overcast
3:53 PM 51.1 °F - 36.0 °F 56% 30.18 in 10.0 mi West 17.3 mph - N/A   Scattered Clouds
4:53 PM 52.0 °F - 28.9 °F 41% 30.19 in 10.0 mi WNW 17.3 mph 25.3 mph N/A   Partly Cloudy
5:53 PM 51.1 °F - 27.0 °F 39% 30.23 in 10.0 mi WNW 17.3 mph - N/A   Clear
6:53 PM 48.0 °F - 26.1 °F 42% 30.26 in 10.0 mi WNW 12.7 mph 19.6 mph N/A   Scattered Clouds
7:53 PM 46.9 °F - 24.1 °F 41% 30.28 in 10.0 mi WNW 11.5 mph 19.6 mph N/A   Clear
8:53 PM 44.1 °F 39.5 °F 24.1 °F 45% 30.30 in 10.0 mi WNW 8.1 mph - N/A   Clear
9:53 PM 35.1 °F 32.2 °F 28.0 °F 76% 30.34 in 10.0 mi WSW 3.5 mph - N/A   Clear
10:53 PM 32.0 °F - 28.0 °F 85% 30.36 in 10.0 mi Calm Calm - N/A   Clear
11:53 PM 30.9 °F - 28.0 °F 89% 30.37 in 10.0 mi Calm Calm - N/A   Clear